QPF
0.00 0.00 0.00 0.00 0.00 0.00 0.00 0.00 0.00 0.00 0.00 0.00 0.00 0.00 0.01 0.01 0.01 0.02 0.01 0.00 0.00 0.00 0.00 0.00 0.01 0.01 0.01 0.01 0.01 0.01 0.01 0.00 0.01 0.01 0.01 0.01 0.01 0.01 0.01 0.02 0.02 0.02 0.01 0.01 0.02 0.01 0.01 0.01 0.01
0.00 0.00 0.00 0.00 0.00 0.00 0.00 0.00 0.00 0.00 0.00 0.00 0.00 0.00 0.01 0.01 0.01 0.00 0.00 0.00 0.00 0.00 0.00 0.00 0.00 0.00 0.00 0.00 0.00 0.00 0.00 0.00 0.00 0.01 0.01 0.01 0.01 0.02 0.01 0.02 0.02 0.02 0.01 0.01 0.01 0.01 0.00 0.00 0.01
0.00 0.00 0.00 0.00 0.00 0.00 0.00 0.00 0.00 0.00 0.00 0.00 0.01 0.00 0.01 0.01 0.01 0.00 0.00 0.00 0.00 0.00 0.00 0.00 0.00 0.01 0.00 0.00 0.00 0.00 0.01 0.01 0.00 0.01 0.01 0.01 0.02 0.02 0.02 0.01 0.01 0.02 0.02 0.01 0.00 0.00 0.00 0.00 0.00
0.00 0.00 0.00 0.00 0.00 0.00 0.00 0.00 0.00 0.00 0.00 0.00 0.00 0.01 0.01 0.01 0.01 0.00 0.00 0.00 0.00 0.00 0.00 0.00 0.01 0.01 0.00 0.00 0.00 0.00 0.00 0.00 0.01 0.01 0.01 0.02 0.02 0.03 0.02 0.01 0.01 0.02 0.02 0.02 0.01 0.00 0.00 0.00 0.00
0.00 0.00 0.00 0.00 0.00 0.00 0.00 0.00 0.00 0.00 0.00 0.00 0.00 0.02 0.02 0.01 0.00 0.00 0.00 0.00 0.00 0.00 0.00 0.00 0.01 0.01 0.01 0.00 0.00 0.00 0.01 0.01 0.01 0.01 0.02 0.03 0.02 0.02 0.02 0.02 0.01 0.01 0.01 0.01 0.01 0.00 0.00 0.01 0.01
0.00 0.00 0.00 0.00 0.00 0.00 0.00 0.00 0.00 0.00 0.01 0.02 0.01 0.01 0.01 0.00 0.00 0.00 0.00 0.00 0.00 0.00 0.01 0.01 0.01 0.01 0.01 0.00 0.00 0.01 0.01 0.01 0.01 0.01 0.02 0.02 0.01 0.02 0.02 0.02 0.01 0.01 0.01 0.01 0.00 0.01 0.01 0.01 0.01
0.00 0.00 0.00 0.00 0.00 0.00 0.00 0.00 0.00 0.00 0.01 0.03 0.02 0.01 0.00 0.00 0.01 0.01 0.01 0.01 0.01 0.00 0.01 0.02 0.03 0.03 0.02 0.02 0.02 0.01 0.01 0.01 0.01 0.01 0.01 0.02 0.01 0.02 0.02 0.02 0.02 0.01 0.01 0.01 0.01 0.01 0.01 0.01 0.02
0.00 0.00 0.00 0.00 0.00 0.00 0.00 0.00 0.00 0.00 0.00 0.00 0.01 0.00 0.00 0.00 0.01 0.02 0.01 0.02 0.03 0.02 0.03 0.03 0.05 0.05 0.04 0.03 0.02 0.02 0.02 0.01 0.02 0.02 0.02 0.02 0.02 0.03 0.03 0.02 0.02 0.01 0.01 0.01 0.01 0.01 0.01 0.02 0.03
0.00 0.00 0.00 0.00 0.00 0.00 0.00 0.00 0.00 0.00 0.00 0.00 0.00 0.00 0.00 0.00 0.00 0.02 0.03 0.03 0.04 0.05 0.06 0.06 0.05 0.06 0.07 0.06 0.04 0.03 0.03 0.02 0.02 0.04 0.04 0.04 0.03 0.03 0.03 0.02 0.03 0.02 0.02 0.03 0.03 0.02 0.02 0.02 0.03
0.00 0.00 0.00 0.00 0.00 0.00 0.00 0.00 0.00 0.00 0.01 0.00 0.00 0.00 0.00 0.00 0.01 0.02 0.02 0.02 0.02 0.04 0.08 0.10 0.09 0.07 0.07 0.05 0.06 0.07 0.05 0.04 0.04 0.06 0.06 0.06 0.06 0.05 0.02 0.02 0.04 0.03 0.03 0.03 0.03 0.03 0.02 0.02 0.01
0.00 0.00 0.00 0.00 0.00 0.00 0.00 0.00 0.00 0.00 0.01 0.00 0.00 0.00 0.00 0.01 0.01 0.02 0.01 0.02 0.04 0.06 0.08 0.12 0.13 0.10 0.06 0.05 0.04 0.05 0.06 0.06 0.05 0.05 0.07 0.07 0.04 0.04 0.03 0.03 0.04 0.05 0.03 0.04 0.02 0.02 0.02 0.03 0.03
0.00 0.00 0.00 0.00 0.00 0.00 0.00 0.00 0.00 0.00 0.00 0.00 0.01 0.00 0.02 0.01 0.02 0.02 0.02 0.03 0.05 0.07 0.06 0.07 0.12 0.09 0.05 0.04 0.04 0.04 0.05 0.04 0.03 0.03 0.04 0.04 0.04 0.04 0.03 0.03 0.04 0.05 0.05 0.05 0.03 0.03 0.04 0.03 0.02
0.00 0.00 0.00 0.00 0.00 0.00 0.00 0.00 0.00 0.00 0.00 0.01 0.00 0.00 0.02 0.03 0.04 0.04 0.05 0.07 0.09 0.09 0.07 0.07 0.11 0.12 0.08 0.05 0.03 0.03 0.04 0.03 0.02 0.02 0.03 0.04 0.04 0.05 0.04 0.05 0.05 0.04 0.04 0.04 0.03 0.02 0.03 0.03 0.02
0.00 0.00 0.00 0.00 0.00 0.00 0.00 0.00 0.00 0.00 0.00 0.00 0.00 0.00 0.01 0.03 0.05 0.07 0.11 0.11 0.10 0.09 0.09 0.07 0.12 0.12 0.10 0.06 0.04 0.04 0.04 0.04 0.02 0.03 0.03 0.04 0.05 0.06 0.06 0.06 0.06 0.04 0.03 0.04 0.03 0.02 0.03 0.03 0.03
0.00 0.00 0.00 0.00 0.00 0.00 0.00 0.00 0.00 0.00 0.00 0.00 0.00 0.00 0.01 0.02 0.06 0.10 0.10 0.10 0.11 0.09 0.09 0.09 0.11 0.10 0.07 0.07 0.06 0.06 0.06 0.04 0.03 0.04 0.03 0.04 0.05 0.06 0.06 0.06 0.04 0.03 0.03 0.03 0.03 0.03 0.03 0.02 0.03
0.00 0.00 0.00 0.00 0.00 0.00 0.00 0.00 0.00 0.00 0.01 0.01 0.00 0.00 0.02 0.05 0.05 0.10 0.09 0.08 0.09 0.10 0.10 0.09 0.08 0.09 0.08 0.08 0.08 0.08 0.09 0.05 0.05 0.04 0.04 0.04 0.04 0.04 0.05 0.05 0.04 0.04 0.03 0.03 0.04 0.04 0.05 0.04 0.04
0.00 0.00 0.00 0.00 0.00 0.00 0.00 0.00 0.00 0.00 0.00 0.01 0.00 0.01 0.03 0.04 0.04 0.06 0.09 0.10 0.10 0.09 0.10 0.12 0.09 0.08 0.09 0.10 0.09 0.08 0.09 0.07 0.06 0.05 0.04 0.04 0.03 0.04 0.05 0.05 0.05 0.04 0.04 0.05 0.03 0.03 0.04 0.04 0.03
0.00 0.00 0.00 0.00 0.00 0.00 0.00 0.00 0.00 0.00 0.00 0.00 0.00 0.01 0.01 0.02 0.03 0.04 0.05 0.10 0.10 0.10 0.13 0.14 0.10 0.08 0.09 0.09 0.08 0.08 0.09 0.08 0.06 0.05 0.05 0.05 0.05 0.05 0.05 0.04 0.04 0.03 0.02 0.04 0.03 0.03 0.03 0.02 0.03
0.00 0.00 0.00 0.00 0.00 0.00 0.00 0.00 0.00 0.00 0.00 0.00 0.01 0.00 0.00 0.01 0.03 0.04 0.04 0.05 0.08 0.10 0.13 0.13 0.09 0.08 0.10 0.08 0.06 0.06 0.06 0.06 0.05 0.04 0.05 0.05 0.05 0.05 0.05 0.04 0.04 0.03 0.02 0.02 0.02 0.01 0.02 0.01 0.01
0.00 0.00 0.00 0.00 0.00 0.00 0.00 0.00 0.00 0.00 0.00 0.01 0.01 0.00 0.01 0.01 0.02 0.03 0.05 0.05 0.06 0.10 0.14 0.14 0.11 0.09 0.09 0.08 0.06 0.06 0.06 0.07 0.05 0.04 0.04 0.04 0.06 0.05 0.03 0.04 0.03 0.02 0.01 0.01 0.01 0.01 0.01 0.01 0.01
0.00 0.00 0.00 0.00 0.00 0.00 0.00 0.00 0.00 0.00 0.00 0.00 0.00 0.00 0.00 0.00 0.01 0.03 0.05 0.07 0.06 0.08 0.10 0.10 0.09 0.08 0.08 0.09 0.08 0.08 0.07 0.05 0.04 0.04 0.04 0.03 0.04 0.04 0.03 0.03 0.02 0.02 0.01 0.02 0.02 0.02 0.01 0.01 0.00
0.00 0.00 0.00 0.00 0.00 0.00 0.00 0.00 0.00 0.00 0.00 0.00 0.00 0.00 0.00 0.00 0.01 0.03 0.04 0.06 0.07 0.07 0.07 0.09 0.08 0.06 0.06 0.07 0.08 0.09 0.08 0.05 0.04 0.05 0.04 0.04 0.04 0.03 0.03 0.03 0.03 0.02 0.01 0.01 0.01 0.01 0.01 0.01 0.00
0.00 0.00 0.00 0.00 0.00 0.00 0.00 0.00 0.00 0.00 0.00 0.00 0.00 0.00 0.00 0.00 0.01 0.02 0.03 0.04 0.05 0.07 0.07 0.09 0.11 0.08 0.06 0.07 0.08 0.09 0.09 0.06 0.04 0.05 0.04 0.04 0.04 0.04 0.04 0.04 0.03 0.02 0.01 0.01 0.01 0.01 0.01 0.01 0.00
0.00 0.00 0.00 0.00 0.00 0.00 0.00 0.00 0.00 0.00 0.00 0.00 0.00 0.00 0.00 0.00 0.01 0.02 0.04 0.05 0.06 0.06 0.07 0.08 0.10 0.08 0.06 0.06 0.08 0.09 0.08 0.05 0.05 0.04 0.04 0.04 0.04 0.04 0.04 0.02 0.01 0.01 0.01 0.00 0.00 0.01 0.01 0.00 0.00
0.00 0.00 0.00 0.00 0.00 0.00 0.00 0.00 0.00 0.00 0.00 0.00 0.00 0.00 0.00 0.00 0.00 0.01 0.02 0.03 0.04 0.04 0.05 0.07 0.09 0.08 0.06 0.07 0.07 0.08 0.08 0.05 0.05 0.04 0.05 0.03 0.02 0.02 0.02 0.01 0.01 0.01 0.00 0.00 0.00 0.00 0.00 0.00 0.00
0.00 0.00 0.00 0.00 0.00 0.00 0.00 0.00 0.00 0.00 0.00 0.00 0.00 0.00 0.00 0.00 0.00 0.01 0.02 0.02 0.03 0.03 0.05 0.06 0.08 0.09 0.07 0.06 0.06 0.07 0.07 0.05 0.05 0.04 0.03 0.02 0.02 0.02 0.01 0.01 0.00 0.00 0.00 0.00 0.00 0.00 0.00 0.00 0.00
0.00 0.00 0.00 0.00 0.00 0.00 0.00 0.00 0.00 0.00 0.00 0.00 0.00 0.00 0.00 0.00 0.00 0.00 0.01 0.03 0.04 0.05 0.06 0.06 0.07 0.08 0.06 0.05 0.05 0.05 0.06 0.05 0.05 0.03 0.02 0.01 0.02 0.02 0.01 0.01 0.01 0.00 0.00 0.00 0.00 0.00 0.00 0.00 0.00
0.00 0.00 0.00 0.00 0.01 0.01 0.00 0.00 0.00 0.00 0.00 0.00 0.00 0.00 0.00 0.00 0.00 0.00 0.01 0.03 0.04 0.05 0.07 0.09 0.09 0.08 0.06 0.06 0.06 0.04 0.05 0.06 0.06 0.03 0.01 0.01 0.02 0.02 0.01 0.01 0.01 0.00 0.00 0.00 0.00 0.00 0.00 0.00 0.00
0.00 0.00 0.00 0.00 0.00 0.00 0.00 0.00 0.00 0.00 0.00 0.00 0.00 0.00 0.00 0.00 0.00 0.01 0.02 0.03 0.03 0.04 0.06 0.07 0.09 0.10 0.07 0.05 0.06 0.06 0.06 0.06 0.07 0.05 0.02 0.02 0.02 0.02 0.02 0.01 0.01 0.01 0.00 0.00 0.00 0.00 0.00 0.00 0.00
0.00 0.00 0.00 0.00 0.00 0.00 0.00 0.00 0.00 0.00 0.00 0.00 0.00 0.00 0.00 0.00 0.01 0.01 0.02 0.02 0.02 0.04 0.04 0.04 0.05 0.10 0.08 0.05 0.05 0.06 0.06 0.05 0.05 0.05 0.03 0.02 0.02 0.02 0.02 0.02 0.01 0.01 0.01 0.01 0.00 0.00 0.00 0.00 0.00
MSLP
1009.22 1009.61 1010.01 1010.32 1010.49 1010.48 1010.32 1010.06 1009.78 1009.55 1009.43 1009.43 1009.53 1009.68 1009.81 1009.87 1009.83 1009.71 1009.55 1009.45 1009.47 1009.68 1010.10 1010.69 1011.40 1012.12 1012.75 1013.24 1013.55 1013.69 1013.73 1013.73 1013.77 1013.89 1014.10 1014.38 1014.67 1014.91 1015.08 1015.13 1015.10 1015.02 1014.94 1014.92 1014.99 1015.14 1015.36 1015.59 1015.78
1009.31 1009.78 1010.21 1010.49 1010.59 1010.47 1010.18 1009.79 1009.38 1009.05 1008.85 1008.80 1008.87 1009.00 1009.14 1009.23 1009.23 1009.16 1009.07 1009.05 1009.16 1009.47 1009.98 1010.67 1011.45 1012.24 1012.93 1013.46 1013.79 1013.96 1014.00 1014.00 1014.02 1014.12 1014.31 1014.56 1014.83 1015.06 1015.21 1015.27 1015.24 1015.18 1015.13 1015.15 1015.24 1015.41 1015.63 1015.86 1016.03
1009.45 1009.96 1010.37 1010.60 1010.59 1010.36 1009.95 1009.44 1008.94 1008.53 1008.27 1008.19 1008.25 1008.40 1008.56 1008.68 1008.73 1008.72 1008.70 1008.76 1008.95 1009.34 1009.94 1010.70 1011.55 1012.39 1013.13 1013.69 1014.06 1014.24 1014.30 1014.30 1014.32 1014.40 1014.56 1014.77 1015.00 1015.21 1015.35 1015.41 1015.41 1015.38 1015.38 1015.43 1015.56 1015.75 1015.97 1016.17 1016.31
1009.62 1010.11 1010.47 1010.61 1010.50 1010.15 1009.64 1009.04 1008.48 1008.03 1007.76 1007.68 1007.76 1007.93 1008.13 1008.29 1008.39 1008.44 1008.49 1008.61 1008.88 1009.33 1009.97 1010.78 1011.67 1012.54 1013.31 1013.90 1014.30 1014.52 1014.60 1014.61 1014.63 1014.69 1014.82 1015.00 1015.20 1015.38 1015.51 1015.58 1015.62 1015.65 1015.70 1015.80 1015.96 1016.17 1016.37 1016.54 1016.63
1009.78 1010.22 1010.48 1010.51 1010.29 1009.84 1009.25 1008.62 1008.03 1007.60 1007.36 1007.32 1007.43 1007.64 1007.88 1008.09 1008.23 1008.34 1008.44 1008.61 1008.92 1009.41 1010.08 1010.89 1011.79 1012.66 1013.44 1014.05 1014.48 1014.72 1014.84 1014.88 1014.91 1014.98 1015.09 1015.24 1015.41 1015.57 1015.70 1015.80 1015.88 1015.96 1016.07 1016.23 1016.42 1016.63 1016.82 1016.94 1016.98
1009.91 1010.24 1010.39 1010.29 1009.96 1009.45 1008.82 1008.19 1007.64 1007.26 1007.08 1007.10 1007.28 1007.54 1007.82 1008.07 1008.26 1008.40 1008.54 1008.75 1009.08 1009.57 1010.23 1011.02 1011.88 1012.73 1013.49 1014.10 1014.54 1014.82 1014.98 1015.07 1015.13 1015.21 1015.32 1015.47 1015.63 1015.78 1015.92 1016.04 1016.16 1016.29 1016.45 1016.65 1016.87 1017.07 1017.24 1017.32 1017.31
1009.95 1010.16 1010.17 1009.95 1009.54 1008.98 1008.36 1007.77 1007.30 1007.01 1006.93 1007.04 1007.28 1007.59 1007.92 1008.20 1008.42 1008.59 1008.76 1008.99 1009.31 1009.78 1010.40 1011.13 1011.93 1012.72 1013.44 1014.03 1014.48 1014.79 1014.99 1015.13 1015.25 1015.37 1015.50 1015.66 1015.82 1015.97 1016.11 1016.25 1016.40 1016.57 1016.77 1016.99 1017.22 1017.42 1017.55 1017.60 1017.55
1009.89 1009.96 1009.83 1009.50 1009.02 1008.45 1007.87 1007.37 1007.01 1006.84 1006.86 1007.06 1007.37 1007.74 1008.10 1008.41 1008.66 1008.86 1009.05 1009.28 1009.59 1010.02 1010.58 1011.24 1011.95 1012.65 1013.30 1013.86 1014.30 1014.64 1014.89 1015.09 1015.27 1015.44 1015.61 1015.79 1015.96 1016.12 1016.27 1016.41 1016.57 1016.76 1016.97 1017.20 1017.42 1017.60 1017.71 1017.73 1017.66
1009.71 1009.64 1009.37 1008.96 1008.45 1007.90 1007.39 1006.99 1006.75 1006.71 1006.84 1007.12 1007.49 1007.90 1008.30 1008.64 1008.91 1009.14 1009.35 1009.58 1009.89 1010.28 1010.77 1011.34 1011.95 1012.56 1013.14 1013.64 1014.06 1014.42 1014.71 1014.97 1015.21 1015.44 1015.66 1015.87 1016.06 1016.22 1016.36 1016.50 1016.65 1016.83 1017.03 1017.24 1017.45 1017.61 1017.71 1017.71 1017.63
1009.40 1009.21 1008.85 1008.37 1007.85 1007.34 1006.92 1006.63 1006.51 1006.58 1006.80 1007.16 1007.58 1008.02 1008.44 1008.81 1009.12 1009.37 1009.61 1009.87 1010.17 1010.54 1010.98 1011.46 1011.98 1012.50 1012.98 1013.43 1013.82 1014.18 1014.50 1014.81 1015.11 1015.40 1015.68 1015.92 1016.12 1016.28 1016.41 1016.53 1016.65 1016.80 1016.97 1017.16 1017.34 1017.49 1017.58 1017.58 1017.52
1009.01 1008.72 1008.29 1007.79 1007.28 1006.83 1006.50 1006.31 1006.29 1006.44 1006.74 1007.13 1007.58 1008.05 1008.49 1008.88 1009.23 1009.53 1009.82 1010.11 1010.44 1010.80 1011.19 1011.62 1012.06 1012.49 1012.90 1013.28 1013.64 1013.99 1014.33 1014.68 1015.02 1015.36 1015.67 1015.94 1016.16 1016.32 1016.44 1016.53 1016.62 1016.73 1016.86 1017.01 1017.17 1017.31 1017.39 1017.42 1017.39
1008.58 1008.24 1007.78 1007.28 1006.80 1006.41 1006.15 1006.04 1006.09 1006.30 1006.62 1007.04 1007.50 1007.97 1008.42 1008.85 1009.24 1009.60 1009.95 1010.30 1010.65 1011.03 1011.42 1011.81 1012.19 1012.56 1012.90 1013.24 1013.56 1013.89 1014.24 1014.60 1014.97 1015.34 1015.68 1015.98 1016.21 1016.37 1016.47 1016.54 1016.60 1016.67 1016.76 1016.88 1017.02 1017.15 1017.25 1017.30 1017.31
1008.19 1007.82 1007.36 1006.89 1006.46 1006.12 1005.92 1005.86 1005.94 1006.16 1006.49 1006.89 1007.34 1007.81 1008.27 1008.72 1009.16 1009.58 1009.99 1010.40 1010.81 1011.22 1011.62 1012.00 1012.36 1012.69 1013.00 1013.30 1013.59 1013.90 1014.24 1014.60 1014.98 1015.36 1015.72 1016.03 1016.27 1016.44 1016.54 1016.59 1016.63 1016.67 1016.74 1016.83 1016.96 1017.09 1017.20 1017.30 1017.35
1007.89 1007.53 1007.10 1006.67 1006.29 1006.00 1005.83 1005.79 1005.87 1006.07 1006.37 1006.74 1007.16 1007.61 1008.07 1008.55 1009.02 1009.49 1009.96 1010.43 1010.89 1011.34 1011.77 1012.17 1012.53 1012.86 1013.15 1013.43 1013.71 1014.01 1014.32 1014.67 1015.05 1015.42 1015.78 1016.10 1016.35 1016.53 1016.64 1016.70 1016.73 1016.76 1016.81 1016.90 1017.01 1017.15 1017.29 1017.42 1017.52
1007.72 1007.39 1007.01 1006.63 1006.29 1006.04 1005.88 1005.83 1005.89 1006.05 1006.30 1006.62 1007.00 1007.43 1007.89 1008.37 1008.87 1009.38 1009.89 1010.40 1010.90 1011.38 1011.84 1012.26 1012.65 1013.00 1013.31 1013.60 1013.88 1014.16 1014.47 1014.80 1015.15 1015.51 1015.86 1016.17 1016.43 1016.63 1016.76 1016.84 1016.89 1016.93 1016.98 1017.06 1017.18 1017.32 1017.47 1017.63 1017.77
1007.66 1007.38 1007.05 1006.73 1006.44 1006.21 1006.06 1005.99 1006.01 1006.11 1006.30 1006.57 1006.91 1007.32 1007.76 1008.25 1008.76 1009.28 1009.80 1010.32 1010.83 1011.32 1011.80 1012.26 1012.68 1013.07 1013.42 1013.75 1014.05 1014.34 1014.63 1014.94 1015.26 1015.59 1015.92 1016.23 1016.50 1016.72 1016.88 1017.00 1017.07 1017.13 1017.20 1017.28 1017.39 1017.54 1017.70 1017.87 1018.03
1007.69 1007.45 1007.18 1006.91 1006.67 1006.46 1006.30 1006.21 1006.18 1006.24 1006.37 1006.60 1006.90 1007.28 1007.72 1008.20 1008.70 1009.20 1009.71 1010.21 1010.70 1011.18 1011.67 1012.14 1012.61 1013.05 1013.46 1013.84 1014.18 1014.49 1014.79 1015.08 1015.37 1015.67 1015.97 1016.26 1016.54 1016.78 1016.98 1017.13 1017.25 1017.34 1017.42 1017.51 1017.61 1017.75 1017.90 1018.06 1018.23
1007.72 1007.53 1007.32 1007.11 1006.91 1006.73 1006.57 1006.45 1006.38 1006.39 1006.48 1006.67 1006.95 1007.32 1007.75 1008.21 1008.69 1009.17 1009.63 1010.08 1010.53 1010.98 1011.45 1011.94 1012.43 1012.93 1013.41 1013.85 1014.25 1014.60 1014.91 1015.20 1015.46 1015.73 1016.00 1016.27 1016.55 1016.81 1017.04 1017.24 1017.39 1017.52 1017.61 1017.70 1017.80 1017.91 1018.04 1018.18 1018.33
1007.70 1007.56 1007.41 1007.27 1007.11 1006.96 1006.80 1006.66 1006.56 1006.52 1006.59 1006.75 1007.02 1007.38 1007.81 1008.27 1008.73 1009.17 1009.58 1009.97 1010.35 1010.75 1011.18 1011.66 1012.18 1012.73 1013.27 1013.79 1014.26 1014.66 1015.01 1015.29 1015.54 1015.78 1016.02 1016.28 1016.55 1016.82 1017.09 1017.32 1017.51 1017.66 1017.78 1017.86 1017.94 1018.01 1018.11 1018.22 1018.34
1007.57 1007.49 1007.42 1007.34 1007.24 1007.11 1006.96 1006.81 1006.68 1006.61 1006.64 1006.79 1007.06 1007.42 1007.86 1008.32 1008.77 1009.17 1009.53 1009.86 1010.17 1010.51 1010.90 1011.36 1011.89 1012.48 1013.08 1013.68 1014.22 1014.68 1015.06 1015.36 1015.61 1015.83 1016.05 1016.30 1016.56 1016.84 1017.13 1017.40 1017.63 1017.80 1017.93 1018.01 1018.06 1018.10 1018.14 1018.20 1018.29
1007.32 1007.32 1007.33 1007.33 1007.30 1007.21 1007.07 1006.89 1006.73 1006.63 1006.63 1006.76 1007.02 1007.39 1007.84 1008.31 1008.76 1009.15 1009.48 1009.76 1010.01 1010.29 1010.63 1011.06 1011.60 1012.21 1012.87 1013.52 1014.13 1014.66 1015.08 1015.42 1015.68 1015.90 1016.11 1016.34 1016.60 1016.90 1017.21 1017.50 1017.76 1017.96 1018.10 1018.17 1018.20 1018.20 1018.20 1018.21 1018.25
1007.00 1007.09 1007.20 1007.29 1007.33 1007.27 1007.14 1006.94 1006.74 1006.59 1006.55 1006.64 1006.89 1007.27 1007.73 1008.22 1008.69 1009.09 1009.40 1009.65 1009.87 1010.11 1010.41 1010.81 1011.33 1011.95 1012.64 1013.34 1014.01 1014.59 1015.07 1015.44 1015.73 1015.96 1016.18 1016.42 1016.69 1016.99 1017.32 1017.64 1017.93 1018.15 1018.30 1018.38 1018.39 1018.37 1018.33 1018.30 1018.29
1006.65 1006.86 1007.09 1007.27 1007.37 1007.35 1007.22 1006.99 1006.74 1006.53 1006.42 1006.47 1006.69 1007.05 1007.52 1008.04 1008.54 1008.96 1009.30 1009.55 1009.76 1009.97 1010.24 1010.61 1011.11 1011.73 1012.42 1013.15 1013.85 1014.48 1015.01 1015.43 1015.76 1016.02 1016.26 1016.51 1016.79 1017.11 1017.46 1017.81 1018.12 1018.37 1018.55 1018.64 1018.65 1018.61 1018.54 1018.48 1018.44
1006.35 1006.68 1007.03 1007.31 1007.47 1007.48 1007.33 1007.07 1006.75 1006.46 1006.28 1006.26 1006.43 1006.77 1007.24 1007.78 1008.31 1008.78 1009.16 1009.44 1009.66 1009.87 1010.12 1010.47 1010.94 1011.53 1012.22 1012.95 1013.67 1014.33 1014.90 1015.37 1015.74 1016.04 1016.31 1016.59 1016.89 1017.23 1017.60 1017.97 1018.31 1018.59 1018.79 1018.91 1018.93 1018.90 1018.83 1018.75 1018.68
1006.14 1006.59 1007.03 1007.40 1007.61 1007.64 1007.47 1007.16 1006.78 1006.40 1006.14 1006.04 1006.15 1006.46 1006.92 1007.48 1008.05 1008.57 1009.00 1009.33 1009.58 1009.81 1010.06 1010.39 1010.83 1011.39 1012.04 1012.75 1013.47 1014.14 1014.74 1015.24 1015.66 1016.00 1016.31 1016.62 1016.95 1017.31 1017.70 1018.09 1018.46 1018.77 1019.00 1019.14 1019.20 1019.18 1019.12 1019.05 1018.98
1005.99 1006.54 1007.07 1007.49 1007.74 1007.77 1007.59 1007.24 1006.79 1006.35 1006.00 1005.83 1005.88 1006.15 1006.60 1007.16 1007.77 1008.34 1008.83 1009.22 1009.53 1009.79 1010.05 1010.36 1010.77 1011.28 1011.89 1012.56 1013.26 1013.93 1014.54 1015.07 1015.52 1015.90 1016.25 1016.59 1016.95 1017.32 1017.72 1018.13 1018.51 1018.85 1019.11 1019.29 1019.38 1019.40 1019.37 1019.32 1019.26
1005.87 1006.48 1007.05 1007.50 1007.76 1007.79 1007.60 1007.21 1006.73 1006.24 1005.84 1005.62 1005.62 1005.85 1006.28 1006.85 1007.49 1008.11 1008.66 1009.12 1009.48 1009.79 1010.07 1010.38 1010.76 1011.23 1011.78 1012.41 1013.06 1013.71 1014.31 1014.86 1015.33 1015.75 1016.13 1016.50 1016.87 1017.26 1017.66 1018.07 1018.46 1018.81 1019.10 1019.31 1019.45 1019.52 1019.53 1019.51 1019.48
1005.71 1006.33 1006.90 1007.34 1007.58 1007.61 1007.40 1007.02 1006.52 1006.02 1005.61 1005.37 1005.35 1005.56 1005.98 1006.55 1007.21 1007.87 1008.48 1009.00 1009.43 1009.79 1010.11 1010.43 1010.79 1011.22 1011.73 1012.29 1012.90 1013.51 1014.10 1014.64 1015.13 1015.57 1015.97 1016.36 1016.74 1017.13 1017.53 1017.93 1018.32 1018.67 1018.97 1019.22 1019.39 1019.51 1019.57 1019.60 1019.61
1005.45 1006.03 1006.54 1006.93 1007.14 1007.14 1006.94 1006.58 1006.11 1005.65 1005.27 1005.04 1005.03 1005.24 1005.66 1006.24 1006.91 1007.61 1008.27 1008.85 1009.35 1009.77 1010.13 1010.48 1010.84 1011.25 1011.72 1012.24 1012.79 1013.36 1013.92 1014.45 1014.94 1015.39 1015.80 1016.20 1016.59 1016.97 1017.36 1017.75 1018.12 1018.47 1018.78 1019.04 1019.25 1019.40 1019.51 1019.59 1019.64
1005.07 1005.56 1005.98 1006.29 1006.44 1006.41 1006.22 1005.90 1005.50 1005.11 1004.79 1004.63 1004.65 1004.88 1005.31 1005.89 1006.57 1007.29 1007.99 1008.63 1009.19 1009.68 1010.10 1010.49 1010.87 1011.28 1011.73 1012.21 1012.72 1013.25 1013.78 1014.29 1014.77 1015.22 1015.64 1016.04 1016.43 1016.81 1017.19 1017.56 1017.92 1018.25 1018.56 1018.83 1019.06 1019.25 1019.40 1019.52 1019.62
Thickness
5820 5824 5825 5819 5809 5805 5801 5809 5814 5812 5814 5822 5822 5818 5812 5806 5798 5789 5808 5817 5813 5806 5797 5786 5783 5780 5777 5775 5773 5771 5769 5767 5765 5763 5762 5760 5759 5758 5757 5757 5756 5755 5754 5754 5753 5752 5752 5751 5750
5827 5825 5819 5814 5803 5794 5798 5812 5811 5814 5820 5822 5819 5815 5810 5808 5809 5806 5809 5811 5809 5803 5795 5787 5780 5777 5775 5773 5771 5769 5767 5765 5763 5761 5760 5759 5757 5756 5755 5755 5754 5753 5752 5751 5750 5750 5749 5748 5747
5826 5823 5814 5810 5800 5797 5800 5813 5815 5819 5822 5818 5813 5814 5810 5805 5806 5806 5810 5809 5806 5800 5794 5785 5778 5775 5772 5770 5769 5767 5765 5763 5762 5760 5758 5757 5756 5755 5753 5752 5751 5751 5750 5749 5748 5747 5746 5746 5745
5822 5815 5812 5803 5798 5807 5811 5818 5820 5815 5815 5817 5813 5807 5808 5809 5809 5810 5810 5808 5802 5797 5792 5782 5775 5772 5770 5768 5766 5764 5763 5761 5760 5758 5757 5755 5754 5752 5751 5750 5749 5748 5747 5746 5745 5744 5744 5743 5742
5820 5812 5801 5798 5802 5811 5819 5823 5822 5814 5811 5813 5812 5804 5801 5806 5811 5810 5807 5805 5800 5795 5790 5780 5772 5770 5767 5765 5764 5762 5760 5759 5758 5756 5755 5753 5752 5750 5749 5748 5746 5745 5744 5743 5742 5742 5741 5741 5740
5810 5808 5796 5795 5801 5810 5819 5825 5822 5815 5813 5813 5809 5803 5799 5804 5805 5804 5804 5801 5799 5794 5788 5777 5770 5767 5765 5763 5761 5760 5758 5757 5755 5754 5753 5751 5750 5748 5747 5745 5744 5742 5741 5740 5740 5739 5739 5738 5738
5805 5801 5798 5800 5801 5805 5814 5824 5819 5815 5810 5813 5814 5802 5797 5798 5802 5802 5800 5798 5796 5791 5786 5777 5771 5765 5762 5760 5758 5757 5756 5755 5753 5752 5750 5749 5748 5746 5745 5743 5742 5740 5739 5738 5737 5737 5736 5736 5735
5813 5804 5798 5801 5799 5803 5816 5819 5820 5816 5812 5819 5816 5802 5795 5796 5800 5798 5794 5792 5789 5786 5782 5777 5771 5766 5763 5759 5756 5755 5754 5752 5751 5749 5748 5747 5746 5744 5743 5741 5739 5738 5737 5736 5735 5734 5734 5733 5733
5808 5794 5795 5802 5802 5807 5816 5813 5817 5823 5816 5811 5813 5811 5809 5802 5797 5790 5785 5783 5780 5779 5777 5775 5770 5765 5763 5760 5755 5753 5751 5750 5748 5747 5746 5746 5747 5746 5743 5741 5737 5736 5734 5734 5733 5732 5732 5731 5731
5799 5792 5801 5811 5813 5813 5814 5813 5814 5811 5805 5802 5803 5803 5803 5797 5791 5784 5780 5777 5774 5772 5771 5772 5768 5764 5762 5760 5755 5753 5753 5750 5749 5747 5746 5746 5744 5744 5743 5737 5735 5734 5732 5732 5731 5731 5731 5732 5734
5800 5797 5806 5811 5815 5815 5812 5813 5816 5808 5801 5805 5802 5797 5795 5791 5786 5781 5778 5777 5773 5771 5769 5768 5764 5762 5761 5758 5755 5754 5752 5749 5748 5746 5745 5744 5743 5742 5741 5738 5735 5733 5732 5733 5731 5732 5734 5734 5733
5797 5802 5805 5809 5814 5811 5809 5810 5809 5808 5809 5814 5812 5803 5793 5788 5783 5780 5776 5774 5770 5767 5765 5764 5762 5759 5757 5757 5755 5753 5751 5749 5747 5744 5743 5743 5742 5741 5740 5738 5736 5734 5733 5732 5733 5732 5731 5731 5731
5793 5799 5806 5809 5811 5811 5809 5807 5805 5805 5812 5812 5808 5798 5791 5787 5783 5780 5776 5771 5767 5763 5761 5759 5758 5755 5753 5752 5752 5752 5750 5749 5746 5743 5742 5741 5741 5739 5738 5736 5734 5734 5733 5732 5731 5731 5729 5729 5729
5799 5800 5803 5806 5808 5807 5802 5803 5801 5803 5809 5804 5798 5792 5789 5785 5780 5775 5771 5767 5764 5761 5758 5756 5753 5751 5749 5748 5748 5748 5747 5745 5745 5742 5740 5739 5739 5738 5736 5733 5732 5732 5732 5732 5731 5731 5729 5729 5728
5799 5792 5797 5803 5804 5805 5802 5793 5798 5805 5804 5796 5792 5788 5785 5781 5776 5772 5769 5764 5762 5759 5756 5753 5750 5748 5746 5746 5746 5745 5744 5743 5742 5740 5738 5737 5736 5735 5734 5733 5732 5732 5731 5729 5729 5729 5729 5728 5728
5791 5785 5783 5798 5801 5802 5792 5787 5801 5805 5799 5792 5789 5785 5780 5776 5773 5770 5767 5762 5760 5757 5754 5751 5749 5746 5743 5742 5742 5742 5742 5741 5740 5738 5737 5735 5734 5733 5732 5733 5732 5730 5730 5730 5729 5730 5729 5728 5727
5780 5778 5783 5790 5800 5798 5791 5789 5798 5802 5796 5789 5786 5782 5777 5772 5768 5767 5765 5761 5757 5755 5752 5748 5747 5744 5741 5739 5738 5739 5738 5738 5737 5736 5735 5733 5732 5731 5731 5732 5730 5729 5730 5730 5731 5729 5728 5726 5726
5777 5781 5781 5784 5795 5792 5788 5791 5796 5798 5794 5789 5785 5780 5774 5770 5767 5766 5763 5759 5755 5753 5749 5746 5743 5741 5739 5737 5735 5735 5735 5735 5735 5734 5733 5732 5731 5730 5731 5730 5728 5730 5730 5728 5728 5725 5725 5725 5725
5781 5778 5777 5785 5795 5787 5786 5789 5793 5796 5792 5787 5783 5778 5773 5769 5768 5765 5760 5756 5752 5748 5745 5743 5740 5738 5737 5735 5734 5732 5732 5733 5733 5732 5731 5730 5729 5728 5728 5731 5727 5728 5729 5727 5728 5727 5724 5725 5725
5773 5769 5774 5782 5789 5785 5784 5787 5794 5794 5791 5789 5784 5779 5775 5769 5765 5760 5757 5753 5748 5745 5743 5740 5738 5737 5735 5734 5734 5733 5732 5731 5732 5731 5729 5729 5728 5727 5728 5728 5728 5728 5727 5726 5725 5724 5726 5726 5725
5769 5770 5774 5774 5781 5785 5780 5779 5785 5789 5790 5788 5785 5782 5778 5772 5765 5760 5756 5751 5748 5744 5742 5741 5738 5735 5734 5733 5731 5730 5728 5728 5729 5728 5728 5728 5727 5727 5726 5726 5727 5726 5729 5727 5724 5724 5723 5724 5724
5764 5779 5776 5773 5769 5774 5775 5767 5782 5785 5782 5782 5782 5780 5777 5773 5769 5763 5757 5752 5749 5746 5744 5741 5737 5734 5732 5731 5730 5729 5727 5727 5728 5728 5728 5727 5726 5726 5725 5725 5725 5726 5728 5726 5726 5726 5725 5723 5723
5773 5779 5775 5774 5771 5770 5774 5767 5782 5785 5777 5781 5783 5781 5778 5774 5770 5765 5760 5755 5751 5748 5744 5740 5736 5733 5731 5730 5729 5728 5728 5728 5728 5728 5726 5726 5725 5725 5725 5724 5724 5724 5726 5725 5724 5723 5724 5725 5724
5776 5771 5769 5771 5772 5755 5769 5763 5770 5786 5784 5786 5784 5780 5777 5773 5769 5765 5761 5756 5752 5748 5743 5740 5735 5732 5731 5729 5729 5728 5728 5727 5727 5726 5725 5725 5725 5725 5725 5724 5723 5724 5725 5723 5722 5722 5722 5723 5721
5769 5757 5746 5745 5748 5754 5772 5762 5773 5790 5793 5789 5784 5781 5778 5774 5768 5762 5758 5753 5750 5746 5743 5740 5735 5731 5730 5729 5728 5728 5728 5727 5726 5727 5725 5726 5726 5725 5724 5725 5722 5723 5722 5722 5721 5720 5721 5720 5718
5764 5764 5745 5735 5741 5757 5764 5759 5780 5791 5791 5790 5787 5783 5778 5773 5769 5763 5759 5754 5750 5747 5744 5740 5735 5732 5730 5729 5729 5728 5727 5728 5729 5728 5729 5727 5728 5728 5725 5723 5722 5721 5721 5721 5719 5720 5718 5717 5716
5761 5763 5775 5759 5755 5747 5761 5771 5782 5786 5784 5784 5782 5779 5775 5772 5769 5764 5760 5756 5752 5748 5745 5741 5736 5733 5731 5730 5729 5728 5728 5729 5730 5729 5728 5729 5727 5727 5724 5723 5721 5720 5719 5718 5717 5718 5716 5714 5715
5772 5771 5759 5750 5733 5733 5751 5760 5768 5775 5776 5779 5777 5775 5774 5772 5768 5764 5759 5756 5753 5750 5747 5743 5738 5734 5731 5730 5729 5729 5729 5729 5729 5729 5728 5728 5726 5726 5723 5722 5721 5719 5718 5716 5715 5715 5713 5711 5710
5755 5756 5757 5757 5752 5739 5737 5756 5781 5778 5778 5777 5777 5776 5773 5770 5767 5763 5759 5756 5753 5750 5747 5742 5739 5735 5732 5731 5729 5729 5729 5729 5728 5727 5727 5726 5725 5724 5723 5722 5720 5718 5716 5715 5713 5715 5711 5709 5708
5761 5758 5755 5740 5739 5744 5743 5756 5783 5781 5780 5778 5776 5775 5774 5771 5768 5764 5760 5755 5750 5747 5745 5742 5739 5736 5734 5733 5731 5730 5730 5729 5728 5727 5727 5726 5725 5724 5723 5721 5719 5717 5715 5713 5712 5710 5709 5707 5705